Location: Dealu Mare
(46.0500°N, 22.8167°E)
Time: 21:35:06
(UTC+00:00)

Okean 3 Rocket - Pass Details

Date: 15 January 2026
Orbit: 610 x 637 km, 82.5° (Epoch: 11 February)

Event Time Altitude Azimuth Distance (km) Brightness Sun altitude
Rises 04:22:39 0° 211° (SSW) 2,870 6.8 -17.6°
Reaches altitude 10° 04:25:01 10° 221° (SW) 1,973 5.9 -17.2°
Maximum altitude 04:29:00 34° 286° (WNW) 1,034 4.1 -16.6°
Drops below altitude 10° 04:33:02 10° 352° (N) 2,002 5.9 -15.9°
Sets 04:35:28 0° 1° (N) 2,919 6.9 -15.5°
